Location: Ocean City
(38.3360°N, 75.0850°W)
Time: 11:23:21
(UTC-05:00)

deb Explorer IX - Pass Details

Date: 26 November 2019
Orbit: 545 x 1105 km, 38.8° (Epoch: 06 December)

Event Time Altitude Azimuth Distance (km) Brightness Sun altitude
Rises 19:42:58 0° 203° (SSW) 3,830 ? -35.1°
Reaches altitude 10° 19:46:18 10° 189° (S) 2,922 ? -35.8°
Enters shadow 19:46:53 12° 185° (S) 2,787 ? -35.9°
